sat.trackr.live / text

‹ back to catalog

STARLINK-36880

NORAD 67976 · 2026-038R

PAYLOAD ACTIVE UNKNOWN

§ Identity

Operator
Country
US
Launch date
2026-02-25
Launch site
AFWTR
Launch vehicle
Mass (kg)
RCS (m²)

Purposes: comms

External: N2YO · Heavens-Above · Gunter

§ Orbital elements

Epoch: 2026-05-24T23:43:27.307200Z

Period
93.91 min
Inclination
97.2838°
Eccentricity
0.0001161
Mean motion
15.33446171 rev/d
Perigee alt
464.7 km
Apogee alt
466.3 km
Semi-major
6,843.7 km
B*
7.1166e-4
RAAN
155.0387°
Arg perigee
83.4315°
Mean anomaly
276.7059°
Rev number
1,493

§ Raw data

STARLINK-368801 67976U 26038R   26144.98851050  .00022971  00000+0  71166-3 0  99912 67976  97.2838 155.0387 0001161  83.4315 276.7059 15.33446171 14934

JSON: /api/v1/satellites/67976 · /tle

For live sub-satellite position, see the globe view (requires WebGL).

§ Visibility from observer

Set your observer location to see the next 7 days of passes ≥ 10°. The values pass through the URL so the page stays shareable.

No JS? Fill the form by hand. The geolocation button needs JavaScript.